sat.trackr.live / text

‹ back to catalog

ONEWEB-0254

NORAD 48972 · 2021-060F

PAYLOAD ACTIVE UNKNOWN

§ Identity

Operator
Country
UK
Launch date
2021-07-01
Launch site
VOSTO
Launch vehicle
Mass (kg)
RCS (m²)

Purposes: comms

External: N2YO · Heavens-Above · Gunter

§ Orbital elements

Epoch: 2026-09-12T04:11:34.110240Z

Period
109.37 min
Inclination
87.9141°
Eccentricity
0.0002008
Mean motion
13.16593931 rev/d
Perigee alt
1,196.2 km
Apogee alt
1,199.3 km
Semi-major
7,575.9 km
B*
1.9254e-4
RAAN
211.5009°
Arg perigee
70.1276°
Mean anomaly
290.0071°
Rev number
25,103

§ Raw data

ONEWEB-02541 48972U 21060F   26255.17470035  .00000086  00000+0  19254-3 0  99932 48972  87.9141 211.5009 0002008  70.1276 290.0071 13.16593931251034

JSON: /api/v1/satellites/48972 · /tle

For live sub-satellite position, see the globe view (requires WebGL).

§ Visibility from observer

Set your observer location to see the next 7 days of passes ≥ 10°. The values pass through the URL so the page stays shareable.

No JS? Fill the form by hand. The geolocation button needs JavaScript.